This demonstration page uses our WeatherBlox Daily Observations layout. Learn more.

Left ArrowRight Arrow

39.51506, -84.39828

Hourly Observations for December 27, 2015

Temp ( °F °C ) Dew Point ( °F °C ) Humidity (%) Winds ( mph kmh ) Pressure ( in mb ) Visibility ( mi km ) Precip ( " mm )
12:15 am 00:15 Cloudy with Mist and Fog 60 15.3 57 14 92 92 N N/A 29.94 1014 5 8.0467 N/A
12:35 am 00:35 Mostly Cloudy 60 15.3 57 14 92 92 N N/A 29.94 1014 7 11.26538 N/A
12:55 am 00:55 Cloudy with Mist and Fog 60 15.3 57 14 92 92 N N/A 29.94 1014 4 6.43736 N/A
1:15 am 01:15 Cloudy 60 15.6 58 14.3 92 92 N N/A 29.94 1014 7 11.26538 N/A
1:35 am 01:35 Cloudy 62 16.6 60 15.3 92 92 SSW 7 11 29.94 1014 10 16.0934 N/A
1:55 am 01:55 Cloudy 62 16.8 60 15.5 92 92 SSW 8 13 29.91 1013 10 16.0934 N/A
2:15 am 02:15 Cloudy 63 17.3 61 15.9 92 92 SSW 10 17 29.91 1013 10 16.0934 N/A
2:35 am 02:35 Cloudy 64 18 62 16.5 91 91 SSW 9 15 29.91 1013 10 16.0934 N/A
2:55 am 02:55 Cloudy 64 18 62 16.5 91 91 SSW 12 19 29.91 1013 10 16.0934 N/A
3:15 am 03:15 Cloudy 66 19.1 63 17.4 90 90 SW 9 15 29.91 1013 10 16.0934 N/A
3:35 am 03:35 Cloudy 67 19.5 64 17.5 88 88 SSW 9 15 29.91 1013 10 16.0934 N/A
3:55 am 03:55 Cloudy 69 20.8 65 18.5 87 87 SSW 16 26 29.91 1013 10 16.0934 N/A
4:15 am 04:15 Cloudy 69 20.8 65 18.1 85 85 SW 18 30 29.88 1012 10 16.0934 N/A
4:35 am 04:35 Cloudy 69 20.8 64 18 84 84 SW 17 28 29.88 1012 10 16.0934 N/A
4:55 am 04:55 Cloudy 69 20.8 64 18 84 84 SW 18 30 29.88 1012 10 16.0934 N/A
5:15 am 05:15 Cloudy with Light Rain 69 20.8 65 18.1 85 85 SW 18 30 29.88 1012 7 11.26538 N/A
5:35 am 05:35 Cloudy 69 20.8 65 18.3 86 86 SW 17 28 29.88 1012 10 16.0934 N/A
5:55 am 05:55 Cloudy 69 20.8 65 18.1 85 85 SW 16 26 29.88 1012 10 16.0934 N/A
6:15 am 06:15 Cloudy with Drizzle 69 20.8 65 18.1 85 85 SW 16 26 29.88 1012 10 16.0934 N/A
6:35 am 06:35 Cloudy 69 20.8 65 18.1 85 85 SW 14 22 29.88 1012 10 16.0934 N/A
6:55 am 06:55 Cloudy 69 20.8 65 18.1 85 85 SW 12 19 29.88 1012 10 16.0934 N/A
7:15 am 07:15 Cloudy 69 20.8 64 18 84 84 SW 16 26 29.88 1012 10 16.0934 N/A
7:35 am 07:35 Cloudy with Light Rain 69 20.8 64 18 84 84 SSW 15 24 29.88 1012 10 16.0934 N/A
7:55 am 07:55 Cloudy 69 20.8 64 17.6 82 82 NW 16 26 29.88 1012 10 16.0934 N/A
8:15 am 08:15 Cloudy with Heavy Rain 60 15.3 55 12.8 85 85 N 16 26 29.94 1014 5 8.0467 N/A
8:35 am 08:35 Cloudy with Rain 57 13.8 53 11.8 88 88 NE 14 22 29.94 1014 4 6.43736 N/A
8:55 am 08:55 Cloudy 57 13.8 53 11.8 88 88 NNE 9 15 29.97 1015 10 16.0934 N/A
9:15 am 09:15 Cloudy 57 13.8 53 11.8 88 88 N 9 15 29.97 1015 10 16.0934 N/A
9:35 am 09:35 Cloudy with Light Rain 57 13.8 53 11.7 87 87 NNE 12 19 29.97 1015 10 16.0934 N/A
9:55 am 09:55 Cloudy with Light Rain 56 13.6 53 11.5 87 87 N 12 19 29.97 1015 10 16.0934 N/A
10:15 am 10:15 Cloudy with Light Rain 55 12.5 51 10.3 87 87 N 12 19 30 1016 10 16.0934 N/A
10:35 am 10:35 Cloudy with Light Rain 55 12.5 50 10.2 86 86 N 13 20 30 1016 10 16.0934 N/A
10:55 am 10:55 Cloudy with Heavy Snow 55 12.5 51 10.3 87 87 NNE 15 24 30.03 1017 4 6.43736 N/A
11:15 am 11:15 Cloudy with Light Snow 52 11 48 9 88 88 N 14 22 30.06 1018 4 6.43736 N/A
11:35 am 11:35 Cloudy with Heavy Rain 51 10.4 47 8.3 87 87 N 10 17 30.06 1018 7 11.26538 N/A
11:55 am 11:55 Cloudy with Rain 50 10.2 47 8.2 88 88 N 9 15 30.06 1018 10 16.0934 N/A
12:15 pm 12:15 Cloudy with Rain 49 9.6 46 7.6 87 87 N 10 17 30.06 1018 10 16.0934 N/A
12:35 pm 12:35 Cloudy with Light Snow 49 9.6 46 7.6 87 87 N 10 17 30.06 1018 3 4.82802 N/A
12:55 pm 12:55 Cloudy with Light Snow 49 9.6 46 7.5 87 87 NNE 12 19 30.03 1017 4 6.43736 N/A
1:15 pm 13:15 Cloudy with Light Snow 49 9.6 46 7.7 88 88 NNE 14 22 30.03 1017 5 8.0467 N/A
1:35 pm 13:35 Cloudy 49 9.6 46 7.5 87 87 NNE 18 30 30.03 1017 10 16.0934 N/A
1:55 pm 13:55 Cloudy 49 9.6 46 7.5 87 87 N 10 17 30.03 1017 10 16.0934 N/A
2:15 pm 14:15 Cloudy with Light Rain 48 8.9 44 6.7 86 86 NNE 12 19 30.06 1018 10 16.0934 N/A
2:35 pm 14:35 Cloudy 48 9 44 6.8 86 86 N 12 19 30.09 1019 10 16.0934 N/A
2:55 pm 14:55 Cloudy 48 9 44 6.6 85 85 N 15 24 30.09 1019 10 16.0934 N/A
3:15 pm 15:15 Cloudy 47 8.2 42 5.7 84 84 NNE 20 31 30.12 1020 10 16.0934 N/A
3:35 pm 15:35 Cloudy with Mist and Fog 47 8.1 42 5.8 86 86 NNE 18 30 30.12 1020 2.5 4.02335 N/A
3:55 pm 15:55 Cloudy with Mist and Fog 44 6.8 40 4.7 87 87 NNE 20 31 30.12 1020 3 4.82802 N/A
4:15 pm 16:15 Cloudy 43 6.3 39 3.9 85 85 NNE 18 30 30.15 1021 10 16.0934 N/A
4:35 pm 16:35 Cloudy with Light Snow 43 6 38 3.2 82 82 NE 16 26 30.15 1021 3 4.82802 N/A
4:55 pm 16:55 Cloudy with Light Snow 42 5.5 38 3.2 85 85 NE 17 28 30.18 1022 3 4.82802 N/A
5:15 pm 17:15 Cloudy with Light Snow 42 5.5 38 3.3 86 86 NNE 14 22 30.18 1022 5 8.0467 N/A
5:35 pm 17:35 Cloudy with Light Snow 42 5.5 38 3.2 85 85 NNE 14 22 30.21 1023 7 11.26538 N/A
5:55 pm 17:55 Cloudy 42 5.5 37 3 84 84 NNE 14 22 30.21 1023 10 16.0934 N/A
6:15 pm 18:15 Cloudy with Light Snow 42 5.5 37 2.9 84 84 NNE 16 26 30.24 1024 5 8.0467 N/A
6:35 pm 18:35 Cloudy 41 5 37 2.6 85 85 NNE 10 17 30.24 1024 10 16.0934 N/A
6:55 pm 18:55 Cloudy 41 5 37 2.5 84 84 NE 14 22 30.27 1025 10 16.0934 N/A
7:15 pm 19:15 Cloudy 40 4.7 37 2.5 86 86 NNE 12 19 30.27 1025 10 16.0934 N/A
7:35 pm 19:35 Cloudy with Light Snow 40 4.7 37 2.5 86 86 NE 12 19 30.27 1025 7 11.26538 N/A
7:55 pm 19:55 Cloudy with Light Snow 40 4.7 37 2.5 86 86 NE 14 22 30.27 1025 10 16.0934 N/A
8:15 pm 20:15 Cloudy 40 4.7 37 2.5 86 86 NE 16 26 30.27 1025 10 16.0934 N/A
8:35 pm 20:35 Cloudy 40 4.7 36 2.3 85 85 NE 10 17 30.27 1025 10 16.0934 N/A
8:55 pm 20:55 Cloudy 40 4.7 36 2.3 85 85 NE 7 11 30.3 1026 10 16.0934 N/A
9:15 pm 21:15 Cloudy with Light Snow 40 4.7 37 2.5 86 86 NE 9 15 30.3 1026 7 11.26538 N/A
9:35 pm 21:35 Cloudy 40 4.7 37 2.5 86 86 NE 14 22 30.27 1025 10 16.0934 N/A
9:55 pm 21:55 Cloudy 40 4.7 37 2.5 86 86 NE 10 17 30.3 1026 10 16.0934 N/A
10:15 pm 22:15 Cloudy 40 4.7 36 2.4 85 85 NE 10 17 30.3 1026 10 16.0934 N/A
10:35 pm 22:35 Cloudy with Light Snow 40 4.7 36 2.3 85 85 NE 12 19 30.3 1026 10 16.0934 N/A
10:55 pm 22:55 Cloudy 40 4.7 36 2.3 85 85 NE 12 19 30.3 1026 10 16.0934 N/A
11:15 pm 23:15 Cloudy 40 4.7 36 2.2 84 84 NE 12 19 30.3 1026 10 16.0934 N/A
11:35 pm 23:35 Cloudy 40 4.7 36 2.1 83 83 NE 12 19 30.3 1026 10 16.0934 N/A
11:55 pm 23:55 Cloudy 40 4.7 36 2.2 84 84 NE 14 22 30.3 1026 10 16.0934 N/A

Powered by AerisWeather